VOI221 MRLB-MROC

Flight info

Callsign VOI221
Flight time 0h 21m
Altitude 15000
Route PUXAS1V PUXAS
Aircraft A20N/M-SDE2E3FGHIRWXY/LB1

Departure

Time 2026-04-24 02:17
Airport Daniel Oduber Quirós International Airport (MRLB)

Arrival

Time 2026-04-24 02:39
Airport Juan Santamaría International Airport (MROC)
Time Latitude Longitude Altitude Speed Heading
2026-04-24 02:00 10.60003 -85.53510 278 ft 0 kts 340°
2026-04-24 02:09 10.59996 -85.53507 281 ft 3 kts 340°
2026-04-24 02:09 10.59976 -85.53500 282 ft 3 kts 340°
2026-04-24 02:10 10.59956 -85.53493 284 ft 3 kts 340°
2026-04-24 02:10 10.59937 -85.53491 285 ft 3 kts 18°
2026-04-24 02:10 10.59919 -85.53501 284 ft 3 kts 35°
2026-04-24 02:10 10.59906 -85.53515 283 ft 3 kts 63°
2026-04-24 02:11 10.59900 -85.53528 282 ft 0 kts 68°
2026-04-24 02:15 10.59907 -85.53511 280 ft 8 kts 68°
2026-04-24 02:15 10.59936 -85.53431 284 ft 15 kts 71°
2026-04-24 02:16 10.59922 -85.53347 281 ft 13 kts 141°
2026-04-24 02:16 10.59833 -85.53311 279 ft 15 kts 161°
2026-04-24 02:16 10.59745 -85.53313 278 ft 12 kts 231°
2026-04-24 02:16 10.59730 -85.53343 282 ft 5 kts 248°
2026-04-24 02:17 10.59638 -85.53600 279 ft 76 kts 250°
2026-04-24 02:17 10.59384 -85.54301 281 ft 135 kts 250°
2026-04-24 02:17 10.59030 -85.55299 634 ft 147 kts 250°
2026-04-24 02:17 10.58725 -85.56239 1311 ft 141 kts 249°
2026-04-24 02:18 10.58385 -85.57222 1744 ft 153 kts 247°
2026-04-24 02:18 10.58007 -85.58261 2222 ft 164 kts 247°
2026-04-24 02:18 10.57583 -85.59411 2614 ft 184 kts 248°
2026-04-24 02:18 10.57113 -85.60699 3036 ft 205 kts 248°
2026-04-24 02:19 10.56595 -85.62135 3468 ft 228 kts 248°
2026-04-24 02:19 10.56029 -85.63714 3898 ft 251 kts 249°
2026-04-24 02:19 10.55180 -85.65267 4731 ft 255 kts 225°
2026-04-24 02:19 10.53704 -85.66247 5604 ft 254 kts 196°
2026-04-24 02:20 10.51951 -85.66390 6488 ft 257 kts 168°
2026-04-24 02:20 10.50324 -85.65665 7274 ft 259 kts 139°
2026-04-24 02:20 10.49222 -85.64232 8078 ft 261 kts 113°
2026-04-24 02:20 10.48624 -85.62437 8609 ft 279 kts 104°
2026-04-24 02:21 10.48139 -85.60474 9234 ft 290 kts 103°
2026-04-24 02:21 10.47596 -85.58487 10071 ft 294 kts 105°
2026-04-24 02:21 10.46967 -85.56486 10525 ft 312 kts 108°
2026-04-24 02:21 10.46217 -85.54325 10754 ft 336 kts 109°
2026-04-24 02:22 10.45383 -85.52044 11209 ft 349 kts 110°
2026-04-24 02:22 10.44519 -85.49724 11936 ft 353 kts 110°
2026-04-24 02:22 10.43609 -85.47391 12649 ft 358 kts 114°
2026-04-24 02:22 10.42507 -85.45106 13346 ft 363 kts 115°
2026-04-24 02:23 10.41388 -85.42793 14022 ft 367 kts 115°
2026-04-24 02:23 10.40265 -85.40460 14625 ft 369 kts 115°
2026-04-24 02:23 10.39149 -85.38137 14896 ft 372 kts 115°
2026-04-24 02:23 10.38015 -85.35775 14995 ft 372 kts 115°
2026-04-24 02:24 10.36880 -85.33414 15007 ft 372 kts 115°
2026-04-24 02:24 10.35745 -85.31052 15008 ft 372 kts 115°
2026-04-24 02:24 10.34610 -85.28690 15008 ft 372 kts 115°
2026-04-24 02:24 10.33475 -85.26331 15016 ft 372 kts 115°
2026-04-24 02:25 10.32310 -85.23987 15013 ft 372 kts 119°
2026-04-24 02:25 10.30882 -85.21797 15014 ft 372 kts 127°
2026-04-24 02:25 10.29218 -85.19827 15015 ft 373 kts 131°
2026-04-24 02:25 10.27497 -85.17862 15014 ft 373 kts 131°
2026-04-24 02:26 10.25780 -85.15890 15019 ft 373 kts 131°
2026-04-24 02:26 10.24063 -85.13916 15017 ft 373 kts 131°
2026-04-24 02:26 10.22346 -85.11943 15022 ft 373 kts 131°
2026-04-24 02:26 10.20631 -85.09971 15023 ft 373 kts 131°
2026-04-24 02:27 10.18914 -85.08000 15018 ft 372 kts 131°
2026-04-24 02:27 10.17198 -85.06031 15019 ft 373 kts 131°
2026-04-24 02:27 10.15506 -85.04085 15020 ft 372 kts 130°
2026-04-24 02:27 10.13801 -85.02114 15019 ft 371 kts 130°
2026-04-24 02:28 10.12099 -85.00146 15022 ft 371 kts 130°
2026-04-24 02:28 10.10499 -84.98090 15022 ft 371 kts 127°
2026-04-24 02:28 10.08916 -84.96020 15025 ft 371 kts 127°
2026-04-24 02:28 10.07329 -84.93952 15025 ft 372 kts 127°
2026-04-24 02:29 10.05740 -84.91884 15027 ft 371 kts 127°
2026-04-24 02:29 10.04151 -84.89818 15028 ft 372 kts 127°
2026-04-24 02:29 10.02583 -84.87779 15028 ft 372 kts 127°
2026-04-24 02:29 10.00993 -84.85711 15028 ft 372 kts 127°
2026-04-24 02:30 9.99404 -84.83644 15026 ft 371 kts 127°
2026-04-24 02:30 9.97817 -84.81580 15039 ft 371 kts 127°
2026-04-24 02:30 9.96226 -84.79512 15039 ft 372 kts 127°
2026-04-24 02:30 9.94638 -84.77446 15039 ft 371 kts 127°
2026-04-24 02:31 9.93051 -84.75382 15029 ft 371 kts 127°
2026-04-24 02:31 9.91468 -84.73324 14914 ft 369 kts 127°
2026-04-24 02:31 9.89901 -84.71287 14739 ft 362 kts 127°
2026-04-24 02:31 9.88399 -84.69337 14625 ft 349 kts 127°
2026-04-24 02:32 9.86963 -84.67470 14522 ft 336 kts 127°
2026-04-24 02:32 9.85554 -84.65637 14420 ft 323 kts 126°
2026-04-24 02:32 9.84557 -84.63665 14307 ft 309 kts 104°
2026-04-24 02:32 9.84381 -84.61559 14205 ft 295 kts 82°
2026-04-24 02:33 9.84926 -84.59602 14023 ft 286 kts 69°
2026-04-24 02:33 9.85633 -84.57716 13535 ft 289 kts 68°
2026-04-24 02:33 9.86354 -84.55807 12893 ft 298 kts 69°
2026-04-24 02:33 9.87102 -84.53820 12257 ft 305 kts 69°
2026-04-24 02:34 9.87867 -84.51784 11628 ft 312 kts 69°
2026-04-24 02:34 9.88645 -84.49705 10984 ft 317 kts 69°
2026-04-24 02:34 9.89382 -84.47597 10336 ft 316 kts 69°
2026-04-24 02:34 9.90160 -84.45514 9682 ft 315 kts 69°
2026-04-24 02:35 9.90936 -84.43438 8977 ft 314 kts 69°
2026-04-24 02:35 9.91711 -84.41369 8289 ft 313 kts 69°
2026-04-24 02:35 9.92482 -84.39312 7623 ft 312 kts 69°
2026-04-24 02:35 9.93240 -84.37290 7039 ft 310 kts 69°
2026-04-24 02:36 9.94003 -84.35252 6492 ft 306 kts 69°
2026-04-24 02:36 9.94741 -84.33283 6248 ft 290 kts 69°
2026-04-24 02:36 9.95429 -84.31448 5791 ft 267 kts 69°
2026-04-24 02:36 9.96060 -84.29761 5260 ft 246 kts 69°
2026-04-24 02:37 9.96635 -84.28190 4792 ft 231 kts 68°
2026-04-24 02:37 9.97173 -84.26680 4384 ft 214 kts 67°
2026-04-24 02:37 9.97665 -84.25379 4178 ft 185 kts 67°
2026-04-24 02:37 9.98104 -84.24219 3783 ft 170 kts 68°
2026-04-24 02:38 9.98549 -84.23129 3334 ft 163 kts 69°
2026-04-24 02:38 9.98948 -84.22085 2985 ft 154 kts 71°
2026-04-24 02:38 9.99286 -84.21177 3002 ft 115 kts 69°
2026-04-24 02:38 9.99490 -84.20630 3032 ft 57 kts 70°
2026-04-24 02:39 9.99647 -84.20207 3037 ft 57 kts 69°
2026-04-24 02:39 9.99705 -84.20023 3036 ft 16 kts 91°
2026-04-24 02:39 9.99678 -84.19974 3036 ft 7 kts 139°
2026-04-24 02:39 9.99661 -84.19962 3037 ft 7 kts 148°
2026-04-24 02:40 9.99600 -84.19926 3036 ft 12 kts 134°
2026-04-24 02:40 9.99598 -84.19856 3037 ft 4 kts 79°
2026-04-24 02:40 9.99605 -84.19838 3037 ft 7 kts 66°
2026-04-24 02:40 9.99630 -84.19777 3039 ft 10 kts 68°
2026-04-24 02:41 9.99655 -84.19710 3042 ft 9 kts 69°
2026-04-24 02:41 9.99676 -84.19656 3046 ft 7 kts 65°
2026-04-24 02:41 9.99699 -84.19612 3048 ft 8 kts 53°
2026-04-24 02:41 9.99778 -84.19600 3052 ft 16 kts 347°
2026-04-24 02:42 9.99837 -84.19687 3049 ft 22 kts 256°
2026-04-24 02:42 9.99770 -84.19866 3039 ft 29 kts 245°
2026-04-24 02:42 9.99771 -84.19996 3035 ft 8 kts 321°
2026-04-24 02:42 9.99779 -84.20003 3034 ft 1 kts 319°
2026-04-24 02:43 9.99798 -84.20055 3035 ft 13 kts 265°
2026-04-24 02:43 9.99778 -84.20103 3034 ft 10 kts 242°
2026-04-24 02:43 9.99780 -84.20114 3034 ft 4 kts 293°
2026-04-24 02:43 9.99821 -84.20148 3034 ft 10 kts 326°
2026-04-24 02:44 9.99844 -84.20158 3034 ft 0 kts 340°